Printer-friendly version

IAU Minor Planet Center

Minor Planet Center

MPEC 1999-V24: 1999 VP6

The following Minor Planet Electronic Circular may be linked-to from your own Web pages, but must not otherwise be redistributed electronically.


Read MPEC 1999-V23 Read MPEC 1999-V25


M.P.E.C. 1999-V24                                Issued 1999 Nov. 8, 22:40 UT

     The Minor Planet Electronic Circulars contain information on unusual
         minor planets and routine data on comets.  They are published
   on behalf of Commission 20 of the International Astronomical Union by the
          Minor Planet Center, Smithsonian Astrophysical Observatory,
                          Cambridge, MA 02138, U.S.A.

             BMARSDEN@CFA.HARVARD.EDU or GWILLIAMS@CFA.HARVARD.EDU
          URL http://cfa-www.harvard.edu/iau/mpc.html  ISSN 1523-6714

                                   1999 VP6

Observations:
     J99V06P* C1999 11 05.08944 21 46 11.71 +05 42 33.9          18.5        704
     J99V06P  C1999 11 05.10547 21 46 20.09 +05 42 04.2          19.0        704
     J99V06P  C1999 11 05.12161 21 46 28.53 +05 41 34.7          18.3        704
     J99V06P  C1999 11 05.13762 21 46 36.91 +05 41 05.5          18.5        704
     J99V06P  C1999 11 05.15363 21 46 45.29 +05 40 35.9          18.6        704
     J99V06P  C1999 11 06.05671 21 54 48.53 +05 13 03.9                      711
     J99V06P  C1999 11 06.06035 21 54 50.41 +05 12 56.7                      711
     J99V06P  C1999 11 06.06396 21 54 52.30 +05 12 50.6                      711
     J99V06P  C1999 11 06.07027 21 54 55.56 +05 12 36.4          19.2        704
     J99V06P  C1999 11 06.07051 21 54 55.69 +05 12 36.3          19.3        704
     J99V06P  C1999 11 06.08690 21 55 04.15 +05 12 07.8          19.7        704
     J99V06P  C1999 11 06.10308 21 55 12.47 +05 11 37.9          20.1        704
     J99V06P  C1999 11 06.10332 21 55 12.60 +05 11 35.9          20.3        704
     J99V06P  C1999 11 06.11951 21 55 20.99 +05 11 08.7          19.3        704
     J99V06P  C1999 11 06.11975 21 55 21.03 +05 11 06.8          19.4        704
     J99V06P  C1999 11 06.12823 21 55 25.53 +05 10 52.3          18.3 R      853
     J99V06P  C1999 11 06.13591 21 55 29.41 +05 10 37.5          19.5        704
     J99V06P  C1999 11 06.13615 21 55 29.49 +05 10 37.1          19.5        704
     J99V06P  C1999 11 07.05465 22 03 34.24 +04 42 59.5                      711
     J99V06P  C1999 11 07.05852 22 03 36.17 +04 42 52.9                      711
     J99V06P  C1999 11 07.06424 22 03 39.16 +04 42 42.7                      711
     J99V06P  C1999 11 07.06672 22 03 40.43 +04 42 36.8          19.3        704
     J99V06P  C1999 11 07.08287 22 03 48.50 +04 42 07.5          18.9        704
     J99V06P  C1999 11 07.11538 22 04 04.98 +04 41 09.1          19.1        704
     J99V06P  C1999 11 07.13166 22 04 13.27 +04 40 39.3          19.3        704
     J99V06P  C1999 11 07.42915 22 06 48.64 +04 31 47.2          18.5 V      402
     J99V06P  C1999 11 07.43167 22 06 49.75 +04 31 44.8                      402
     J99V06P  C1999 11 07.43293 22 06 50.41 +04 31 43.2                      402
     J99V06P  C1999 11 08.05616 22 12 13.29 +04 13 23.1                      711
     J99V06P  C1999 11 08.05999 22 12 15.10 +04 13 16.5                      711
     J99V06P  C1999 11 08.06377 22 12 17.20 +04 13 11.1                      711
     J99V06P FC1999 11 08.19858 22 13 24.35 +04 09 12.3          19.0 R      853
     J99V06P  C1999 11 08.19921 22 13 24.71 +04 09 10.9          19.1 R      853
     J99V06P  C1999 11 08.20177 22 13 26.02 +04 09 06.4          19.0 R      853
     J99V06P  C1999 11 08.82170 22 18 42.45 +03 51 04.3          18.6 V      595
     J99V06P  C1999 11 08.82481 22 18 44.01 +03 50 55.0                      595
     J99V06P  C1999 11 08.82816 22 18 45.68 +03 50 49.7                      595

Observer details:
402 Dynic Astronomical Observatory.  Observer A. Sugie.  0.60-m f/3.7 reflector
    + CCD.
595 Farra d'Isonzo.  Observers G. Lombardi, C. Tonini, W. Boschin, E. Pettarin.
    0.40-m f/4.5 reflector + CCD
704 Lincoln Laboratory ETS, New Mexico.  Observers M. Blythe, F. Shelly,
    M. Bezpalko, M. Elowitz, R. Huber.  Measurers J. Stuart, H. Viggh,
    R. Sayer.  1.0-m f/2.15 reflector + CCD.
711 McDonald Observatory.  Observer P. J. Shelus.  0.76-m reflector + CCD.
853 Biosphere 2 Observatory.  Observer G. J. Garradd.  0.5-m f/8.1 reflector
    + CCD.

Orbital elements:
1999 VP6
Epoch 1999 Oct. 29.0 TT = JDT 2451480.5                 Williams
M  29.77237              (2000.0)            P               Q
n   0.65586688     Peri.  106.86750     +0.89013579     +0.42913546
a   1.3119751      Node   228.01357     -0.45535143     +0.85069002
e   0.2714038      Incl.   11.90222     +0.01770156     +0.30359390
P   1.50           H   20.3           G   0.15
From 37 observations 1999 Nov. 5-8.

Ephemeris:
1999 VP6                 a,e,i = 1.31, 0.27, 12                  q = 0.9559
Date    TT    R. A. (2000) Decl.     Delta      r     Elong.  Phase     V
1999 10 29    20 41.31   +09 17.3    0.180    1.038    99.3    70.8    19.1
1999 11 03    21 27.29   +06 47.4    0.182    1.055   105.3    65.1    19.0
1999 11 08    22 11.73   +04 15.4    0.191    1.073   110.6    59.8    19.0
1999 11 13    22 52.45   +01 59.5    0.206    1.092   114.8    55.4    19.1
1999 11 18    23 28.36   +00 10.7    0.226    1.112   117.6    52.0    19.2
1999 11 23    23 59.36   -01 08.4    0.252    1.132   119.1    49.7    19.4
1999 11 28    00 25.96   -02 00.3    0.281    1.152   119.8    48.0    19.7
1999 12 03    00 48.91   -02 29.0    0.314    1.173   119.6    46.9    19.9
1999 12 08    01 08.94   -02 38.9    0.349    1.194   119.0    46.2    20.2
1999 12 13    01 26.71   -02 33.8    0.387    1.215   118.0    45.7    20.4
1999 12 18    01 42.74   -02 16.8    0.427    1.236   116.7    45.3    20.6
1999 12 23    01 57.42   -01 50.8    0.470    1.258   115.2    45.0    20.9
1999 12 28    02 11.05   -01 17.9    0.513    1.278   113.6    44.8    21.1
2000 01 02    02 23.89   -00 39.7    0.559    1.299   111.8    44.6    21.3
2000 01 07    02 36.14   +00 02.5    0.606    1.320   110.0    44.5    21.5
2000 01 12    02 47.97   +00 47.6    0.654    1.340   108.1    44.3    21.7
2000 01 17    02 59.49   +01 34.7    0.704    1.359   106.1    44.0    21.9

Gareth V. Williams           (C) Copyright 1999 MPC           M.P.E.C. 1999-V24

Read MPEC 1999-V23 Read MPEC 1999-V25


Our Web policy. Index to the CBAT/MPC/ICQ pages.


Valid HTML 4.01!